• In Netherlands
  • List of Countries
  • For 7 days
  • Water Temperature
  • Satellite Maps
  • Weather Map
  • Weather Widgets
  • user-avatar
    Login

    Hourly Weather Pomorie

    Today, 27 February, Monday

    Time Temperature Precipitation Wind Pressure Humidity
    00:00 +4°C° 0 mm 2 mps 766 mmHg 92%
    01:00 +4°C° 0 mm 2 mps 766 mmHg 92%
    02:00 +4°C° 0 mm 2 mps 766 mmHg 92%
    03:00 +5°C° 0 mm 1 mps 765 mmHg 92%
    04:00 +5°C° 0 mm 1 mps 765 mmHg 92%
    05:00 +5°C° 0 mm 1 mps 765 mmHg 92%
    06:00 +5°C° 0 mm 1 mps 765 mmHg 91%
    07:00 +6°C° 0 mm 1 mps 765 mmHg 89%
    08:00 +7°C° 0 mm 1 mps 765 mmHg 88%
    09:00 +9°C° 0 mm 1 mps 765 mmHg 81%
    10:00 +11°C° 0 mm 1 mps 765 mmHg 74%
    11:00 +13°C° 0 mm 1 mps 765 mmHg 67%
    12:00 +14°C° 0 mm 1 mps 764 mmHg 65%
    13:00 +15°C° 0 mm 1 mps 764 mmHg 62%
    14:00 +16°C° 0 mm 1 mps 764 mmHg 60%
    15:00 +15°C° 0 mm 1 mps 763 mmHg 64%
    16:00 +14°C° 0 mm 2 mps 763 mmHg 69%
    17:00 +14°C° 0 mm 2 mps 763 mmHg 73%
    18:00 +12°C° 0 mm 2 mps 763 mmHg 78%
    19:00 +10°C° 0 mm 2 mps 764 mmHg 82%
    20:00 +8°C° 0 mm 2 mps 764 mmHg 86%
    21:00 +8°C° 0 mm 2 mps 764 mmHg 87%
    22:00 +8°C° 0 mm 2 mps 764 mmHg 88%
    23:00 +8°C° 0 mm 2 mps 764 mmHg 89%

    Tomorrow, 28 February, Tuesday

    Time Temperature Precipitation Wind Pressure Humidity
    00:00 +7°C° 0 mm 2 mps 763 mmHg 89%
    01:00 +7°C° 0 mm 2 mps 763 mmHg 90%
    02:00 +8°C° 0 mm 1 mps 763 mmHg 90%
    03:00 +7°C° 0 mm 1 mps 763 mmHg 90%
    04:00 +7°C° 0 mm 1 mps 763 mmHg 91%
    05:00 +7°C° 0 mm 1 mps 762 mmHg 91%
    06:00 +8°C° 0 mm 1 mps 763 mmHg 90%
    07:00 +8°C° 0 mm 1 mps 763 mmHg 89%
    08:00 +8°C° 0 mm 2 mps 763 mmHg 88%
    09:00 +10°C° 0 mm 2 mps 763 mmHg 82%
    10:00 +13°C° 0 mm 2 mps 763 mmHg 75%
    11:00 +15°C° 0 mm 2 mps 763 mmHg 69%
    12:00 +15°C° 0 mm 2 mps 762 mmHg 67%
    13:00 +16°C° 0 mm 2 mps 762 mmHg 64%
    14:00 +17°C° 0 mm 2 mps 761 mmHg 62%
    15:00 +16°C° 0 mm 3 mps 761 mmHg 66%
    16:00 +14°C° 0 mm 3 mps 761 mmHg 70%
    17:00 +14°C° 0 mm 3 mps 761 mmHg 74%
    18:00 +12°C° 0 mm 3 mps 761 mmHg 78%
    19:00 +11°C° 0 mm 3 mps 761 mmHg 82%
    20:00 +9°C° 0 mm 3 mps 761 mmHg 86%
    21:00 +9°C° 0 mm 2 mps 761 mmHg 87%
    22:00 +9°C° 0 mm 2 mps 761 mmHg 88%
    23:00 +9°C° 0 mm 2 mps 761 mmHg 89%

    Day after tomorrow, 1 March, Wednesday

    Time Temperature Precipitation Wind Pressure Humidity
    00:00 +8°C° 0 mm 2 mps 761 mmHg 90%
    01:00 +8°C° 0 mm 2 mps 760 mmHg 90%
    02:00 +8°C° 0 mm 2 mps 760 mmHg 91%
    03:00 +8°C° 0 mm 2 mps 760 mmHg 90%
    04:00 +8°C° 0 mm 2 mps 759 mmHg 90%
    05:00 +8°C° 0 mm 3 mps 759 mmHg 90%
    06:00 +8°C° 0 mm 3 mps 759 mmHg 89%
    07:00 +9°C° 0 mm 3 mps 759 mmHg 89%
    08:00 +9°C° 0 mm 3 mps 759 mmHg 88%
    09:00 +11°C° 0 mm 4 mps 759 mmHg 82%
    10:00 +13°C° 0 mm 4 mps 758 mmHg 75%
    11:00 +15°C° 0 mm 5 mps 758 mmHg 69%
    12:00 +16°C° 0 mm 6 mps 757 mmHg 67%
    13:00 +17°C° 0 mm 6 mps 757 mmHg 66%
    14:00 +17°C° 0 mm 6 mps 756 mmHg 64%
    15:00 +17°C° 0 mm 6 mps 756 mmHg 67%
    16:00 +16°C° 0 mm 6 mps 755 mmHg 70%
    17:00 +16°C° 0 mm 6 mps 755 mmHg 73%
    18:00 +15°C° 0 mm 6 mps 755 mmHg 77%
    19:00 +13°C° 0 mm 6 mps 755 mmHg 82%
    20:00 +11°C° 0 mm 6 mps 755 mmHg 86%
    21:00 +11°C° 0 mm 6 mps 755 mmHg 86%
    22:00 +11°C° 0 mm 6 mps 755 mmHg 86%
    23:00 +10°C° 0 mm 6 mps 755 mmHg 86%

    2 March, Thursday

    Time Temperature Precipitation Wind Pressure Humidity
    00:00 +10°C° 0.2 mm 6 mps 755 mmHg 84%
    01:00 +9°C° 0.2 mm 6 mps 756 mmHg 82%
    02:00 +9°C° 0.2 mm 6 mps 756 mmHg 79%
    03:00 +8°C° 0.4 mm 6 mps 756 mmHg 79%
    04:00 +7°C° 0.4 mm 6 mps 757 mmHg 78%
    05:00 +7°C° 0.4 mm 6 mps 757 mmHg 77%
    06:00 +5°C° 0.2 mm 7 mps 758 mmHg 77%
    07:00 +5°C° 0.2 mm 7 mps 758 mmHg 77%
    08:00 +5°C° 0.2 mm 7 mps 759 mmHg 77%
    09:00 +5°C° 0.3 mm 7 mps 760 mmHg 77%
    10:00 +7°C° 0.3 mm 6 mps 760 mmHg 76%
    11:00 +7°C° 0.3 mm 6 mps 761 mmHg 75%
    12:00 +8°C° 0.3 mm 6 mps 761 mmHg 71%
    13:00 +9°C° 0.3 mm 5 mps 761 mmHg 67%
    14:00 +10°C° 0.3 mm 5 mps 761 mmHg 62%
    15:00 +10°C° 0 mm 5 mps 761 mmHg 62%
    16:00 +11°C° 0 mm 4 mps 761 mmHg 63%
    17:00 +11°C° 0 mm 3 mps 761 mmHg 63%
    18:00 +10°C° 0 mm 3 mps 762 mmHg 64%
    19:00 +9°C° 0 mm 3 mps 762 mmHg 66%
    20:00 +7°C° 0 mm 3 mps 763 mmHg 68%
    21:00 +7°C° 0 mm 3 mps 763 mmHg 68%
    22:00 +7°C° 0 mm 3 mps 763 mmHg 68%
    23:00 +7°C° 0 mm 3 mps 764 mmHg 68%

    3 March, Friday

    Time Temperature Precipitation Wind Pressure Humidity
    00:00 +5°C° 0 mm 3 mps 764 mmHg 69%
    01:00 +5°C° 0 mm 3 mps 764 mmHg 69%
    02:00 +5°C° 0 mm 3 mps 764 mmHg 69%
    03:00 +5°C° 0 mm 3 mps 764 mmHg 69%
    04:00 +5°C° 0 mm 2 mps 765 mmHg 68%
    05:00 +5°C° 0 mm 2 mps 765 mmHg 68%
    06:00 +6°C° 0 mm 2 mps 765 mmHg 67%
    07:00 +6°C° 0 mm 2 mps 766 mmHg 66%
    08:00 +8°C° 0 mm 1 mps 766 mmHg 64%
    09:00 +10°C° 0 mm 1 mps 766 mmHg 59%
    10:00 +12°C° 0 mm 1 mps 766 mmHg 53%
    11:00 +14°C° 0 mm 1 mps 766 mmHg 47%
    12:00 +14°C° 0 mm 1 mps 766 mmHg 46%
    13:00 +15°C° 0 mm 1 mps 766 mmHg 44%
    14:00 +16°C° 0 mm 1 mps 766 mmHg 43%
    15:00 +15°C° 0 mm 2 mps 766 mmHg 48%
    16:00 +15°C° 0 mm 2 mps 766 mmHg 52%
    17:00 +14°C° 0 mm 2 mps 766 mmHg 57%
    18:00 +13°C° 0 mm 2 mps 766 mmHg 60%
    19:00 +10°C° 0 mm 2 mps 767 mmHg 63%
    20:00 +8°C° 0 mm 2 mps 767 mmHg 66%
    21:00 +8°C° 0 mm 2 mps 767 mmHg 68%
    22:00 +7°C° 0 mm 2 mps 768 mmHg 71%
    23:00 +7°C° 0 mm 2 mps 768 mmHg 73%

    4 March, Saturday

    Time Temperature Precipitation Wind Pressure Humidity
    00:00 +7°C° 0 mm 2 mps 768 mmHg 75%
    01:00 +6°C° 0 mm 2 mps 768 mmHg 77%
    02:00 +6°C° 0 mm 2 mps 768 mmHg 79%
    03:00 +6°C° 0 mm 2 mps 768 mmHg 80%
    04:00 +6°C° 0 mm 2 mps 768 mmHg 80%
    05:00 +5°C° 0 mm 2 mps 768 mmHg 81%
    06:00 +6°C° 0 mm 2 mps 768 mmHg 79%
    07:00 +7°C° 0 mm 2 mps 768 mmHg 76%
    08:00 +8°C° 0 mm 3 mps 769 mmHg 74%
    09:00 +9°C° 0 mm 3 mps 769 mmHg 68%
    10:00 +11°C° 0 mm 3 mps 769 mmHg 62%
    11:00 +13°C° 0 mm 4 mps 769 mmHg 56%
    12:00 +13°C° 0 mm 4 mps 768 mmHg 55%
    13:00 +13°C° 0 mm 4 mps 768 mmHg 54%
    14:00 +14°C° 0 mm 5 mps 768 mmHg 52%
    15:00 +13°C° 0 mm 4 mps 768 mmHg 57%
    16:00 +12°C° 0 mm 4 mps 768 mmHg 61%
    17:00 +11°C° 0 mm 4 mps 768 mmHg 65%
    18:00 +8°C° 0 mm 4 mps 768 mmHg 70%
    19:00 +7°C° 0 mm 4 mps 768 mmHg 75%
    20:00 +5°C° 0 mm 4 mps 768 mmHg 80%
    21:00 +5°C° 0 mm 3 mps 768 mmHg 82%
    22:00 +5°C° 0 mm 3 mps 768 mmHg 83%
    23:00 +4°C° 0 mm 3 mps 768 mmHg 84%
    Show more